Year,Month,Day,Hour,Minute,Value (Times are PST for temperature in C)
2016,04,17,00,00,9.30
2016,04,17,00,01,9.30
2016,04,17,00,02,9.30
2016,04,17,00,03,9.30
2016,04,17,00,04,9.30
2016,04,17,00,05,9.30
2016,04,17,00,06,9.40
2016,04,17,00,07,9.40
2016,04,17,00,08,9.40
2016,04,17,00,09,9.40
2016,04,17,00,10,9.40
2016,04,17,00,11,9.40
2016,04,17,00,12,9.40
2016,04,17,00,13,9.40
2016,04,17,00,14,9.40
2016,04,17,00,15,9.40
2016,04,17,00,16,9.40
2016,04,17,00,17,9.40
2016,04,17,00,18,9.40
2016,04,17,00,19,9.40
2016,04,17,00,20,9.30
2016,04,17,00,21,9.30
2016,04,17,00,22,9.30
2016,04,17,00,23,9.30
2016,04,17,00,24,9.30
2016,04,17,00,25,9.30
2016,04,17,00,26,9.30
2016,04,17,00,27,9.30
2016,04,17,00,28,9.30
2016,04,17,00,29,9.30
2016,04,17,00,30,9.30
2016,04,17,00,31,9.30
2016,04,17,00,32,9.30
2016,04,17,00,33,9.30
2016,04,17,00,34,9.30
2016,04,17,00,35,9.20
2016,04,17,00,36,9.20
2016,04,17,00,37,9.20
2016,04,17,00,38,9.20
2016,04,17,00,39,9.20
2016,04,17,00,40,9.20
2016,04,17,00,41,9.20
2016,04,17,00,42,9.20
2016,04,17,00,43,9.20
2016,04,17,00,44,9.20
2016,04,17,00,45,9.20
2016,04,17,00,46,9.20
2016,04,17,00,47,9.20
2016,04,17,00,48,9.20
2016,04,17,00,49,9.20
2016,04,17,00,50,9.10
2016,04,17,00,51,9.10
2016,04,17,00,52,9.10
2016,04,17,00,53,9.10
2016,04,17,00,54,9.10
2016,04,17,00,55,9.10
2016,04,17,00,56,9.00
2016,04,17,00,57,9.00
2016,04,17,00,58,9.00
2016,04,17,00,59,9.00
2016,04,17,01,00,9.00
2016,04,17,01,01,9.00
2016,04,17,01,02,9.00
2016,04,17,01,03,9.00
2016,04,17,01,04,9.00
2016,04,17,01,05,8.90
2016,04,17,01,06,8.90
2016,04,17,01,07,8.90
2016,04,17,01,08,8.90
2016,04,17,01,09,8.90
2016,04,17,01,10,8.90
2016,04,17,01,11,8.90
2016,04,17,01,12,8.90
2016,04,17,01,13,8.90
2016,04,17,01,14,8.90
2016,04,17,01,15,8.90
2016,04,17,01,16,8.90
2016,04,17,01,17,8.90
2016,04,17,01,18,8.90
2016,04,17,01,19,8.90
2016,04,17,01,20,8.90
2016,04,17,01,21,8.90
2016,04,17,01,22,8.90
2016,04,17,01,23,8.90
2016,04,17,01,24,8.90
2016,04,17,01,25,8.90
2016,04,17,01,26,8.90
2016,04,17,01,27,8.90
2016,04,17,01,28,8.90
2016,04,17,01,29,8.90
2016,04,17,01,30,8.90
2016,04,17,01,31,8.90
2016,04,17,01,32,8.90
2016,04,17,01,33,8.90
2016,04,17,01,34,8.90
2016,04,17,01,35,8.90
2016,04,17,01,36,8.90
2016,04,17,01,37,8.90
2016,04,17,01,38,8.90
2016,04,17,01,39,8.90
2016,04,17,01,40,8.90
2016,04,17,01,41,8.80
2016,04,17,01,42,8.80
2016,04,17,01,43,8.80
2016,04,17,01,44,8.80
2016,04,17,01,45,8.80
2016,04,17,01,46,8.80
2016,04,17,01,47,8.80
2016,04,17,01,48,8.70
2016,04,17,01,49,8.70
2016,04,17,01,50,8.70
2016,04,17,01,51,8.70
2016,04,17,01,52,8.70
2016,04,17,01,53,8.70
2016,04,17,01,54,8.70
2016,04,17,01,55,8.70
2016,04,17,01,56,8.70
2016,04,17,01,57,8.70
2016,04,17,01,58,8.70
2016,04,17,01,59,8.70
2016,04,17,02,00,8.70
2016,04,17,02,01,8.70
2016,04,17,02,02,8.60
2016,04,17,02,03,8.60
2016,04,17,02,04,8.60
2016,04,17,02,05,8.60
2016,04,17,02,06,8.70
2016,04,17,02,07,8.70
2016,04,17,02,08,8.70
2016,04,17,02,09,8.70
2016,04,17,02,10,8.70
2016,04,17,02,11,8.70
2016,04,17,02,12,8.70
2016,04,17,02,13,8.70
2016,04,17,02,14,8.70
2016,04,17,02,15,8.80
2016,04,17,02,16,8.80
2016,04,17,02,17,8.80
2016,04,17,02,18,8.80
2016,04,17,02,19,8.80
2016,04,17,02,20,8.70
2016,04,17,02,21,8.70
2016,04,17,02,22,8.70
2016,04,17,02,23,8.70
2016,04,17,02,24,8.70
2016,04,17,02,25,8.70
2016,04,17,02,26,8.70
2016,04,17,02,27,8.70
2016,04,17,02,28,8.70
2016,04,17,02,29,8.60
2016,04,17,02,30,8.60
2016,04,17,02,31,8.60
2016,04,17,02,32,8.60
2016,04,17,02,33,8.60
2016,04,17,02,34,8.60
2016,04,17,02,35,8.60
2016,04,17,02,36,8.60
2016,04,17,02,37,8.60
2016,04,17,02,38,8.60
2016,04,17,02,39,8.60
2016,04,17,02,40,8.60
2016,04,17,02,41,8.60
2016,04,17,02,42,8.60
2016,04,17,02,43,8.60
2016,04,17,02,44,8.60
2016,04,17,02,45,8.60
2016,04,17,02,46,8.60
2016,04,17,02,47,8.60
2016,04,17,02,48,8.60
2016,04,17,02,49,8.60
2016,04,17,02,50,8.60
2016,04,17,02,51,8.60
2016,04,17,02,52,8.60
2016,04,17,02,53,8.50
2016,04,17,02,54,8.50
2016,04,17,02,55,8.50
2016,04,17,02,56,8.50
2016,04,17,02,57,8.50
2016,04,17,02,58,8.50
2016,04,17,02,59,8.50
2016,04,17,03,00,8.50
2016,04,17,03,01,8.40
2016,04,17,03,02,8.40
2016,04,17,03,03,8.40
2016,04,17,03,04,8.40
2016,04,17,03,05,8.40
2016,04,17,03,06,8.40
2016,04,17,03,07,8.30
2016,04,17,03,08,8.30
2016,04,17,03,09,8.30
2016,04,17,03,10,8.30
2016,04,17,03,11,8.30
2016,04,17,03,12,8.30
2016,04,17,03,13,8.30
2016,04,17,03,14,8.30
2016,04,17,03,15,8.30
2016,04,17,03,16,8.30
2016,04,17,03,17,8.30
2016,04,17,03,18,8.30
2016,04,17,03,19,8.30
2016,04,17,03,20,8.30
2016,04,17,03,21,8.30
2016,04,17,03,22,8.30
2016,04,17,03,23,8.30
2016,04,17,03,24,8.30
2016,04,17,03,25,8.30
2016,04,17,03,26,8.30
2016,04,17,03,27,8.30
2016,04,17,03,28,8.30
2016,04,17,03,29,8.20
2016,04,17,03,30,8.20
2016,04,17,03,31,8.20
2016,04,17,03,32,8.20
2016,04,17,03,33,8.20
2016,04,17,03,34,8.20
2016,04,17,03,35,8.20
2016,04,17,03,36,8.20
2016,04,17,03,37,8.20
2016,04,17,03,38,8.20
2016,04,17,03,39,8.20
2016,04,17,03,40,8.20
2016,04,17,03,41,8.20
2016,04,17,03,42,8.20
2016,04,17,03,43,8.20
2016,04,17,03,44,8.20
2016,04,17,03,45,8.10
2016,04,17,03,46,8.10
2016,04,17,03,47,8.10
2016,04,17,03,48,8.10
2016,04,17,03,49,8.10
2016,04,17,03,50,8.10
2016,04,17,03,51,8.10
2016,04,17,03,52,8.10
2016,04,17,03,53,8.10
2016,04,17,03,54,8.10
2016,04,17,03,55,8.10
2016,04,17,03,56,8.10
2016,04,17,03,57,8.10
2016,04,17,03,58,8.10
2016,04,17,03,59,8.10
2016,04,17,04,00,8.10
2016,04,17,04,01,8.10
2016,04,17,04,02,8.10
2016,04,17,04,03,8.10
2016,04,17,04,04,8.10
2016,04,17,04,05,8.10
2016,04,17,04,06,8.10
2016,04,17,04,07,8.10
2016,04,17,04,08,8.10
2016,04,17,04,09,8.10
2016,04,17,04,10,8.10
2016,04,17,04,11,8.10
2016,04,17,04,12,8.10
2016,04,17,04,13,8.10
2016,04,17,04,14,8.10
2016,04,17,04,15,8.10
2016,04,17,04,16,8.10
2016,04,17,04,17,8.10
2016,04,17,04,18,8.10
2016,04,17,04,19,8.00
2016,04,17,04,20,8.00
2016,04,17,04,21,8.00
2016,04,17,04,22,8.00
2016,04,17,04,23,8.00
2016,04,17,04,24,7.90
2016,04,17,04,25,7.90
2016,04,17,04,26,7.90
2016,04,17,04,27,7.90
2016,04,17,04,28,7.90
2016,04,17,04,29,7.90
2016,04,17,04,30,7.90
2016,04,17,04,31,7.90
2016,04,17,04,32,7.90
2016,04,17,04,33,7.90
2016,04,17,04,34,7.90
2016,04,17,04,35,7.90
2016,04,17,04,36,7.90
2016,04,17,04,37,7.90
2016,04,17,04,38,7.80
2016,04,17,04,39,7.80
2016,04,17,04,40,7.80
2016,04,17,04,41,7.80
2016,04,17,04,42,7.80
2016,04,17,04,43,7.80
2016,04,17,04,44,7.80
2016,04,17,04,45,7.80
2016,04,17,04,46,7.80
2016,04,17,04,47,7.80
2016,04,17,04,48,7.80
2016,04,17,04,49,7.70
2016,04,17,04,50,7.70
2016,04,17,04,51,7.70
2016,04,17,04,52,7.70
2016,04,17,04,53,7.70
2016,04,17,04,54,7.70
2016,04,17,04,55,7.70
2016,04,17,04,56,7.60
2016,04,17,04,57,7.60
2016,04,17,04,58,7.60
2016,04,17,04,59,7.60
2016,04,17,05,00,7.60
2016,04,17,05,01,7.60
2016,04,17,05,02,7.50
2016,04,17,05,03,7.50
2016,04,17,05,04,7.50
2016,04,17,05,05,7.50
2016,04,17,05,06,7.50
2016,04,17,05,07,7.50
2016,04,17,05,08,7.50
2016,04,17,05,09,7.50
2016,04,17,05,10,7.50
2016,04,17,05,11,7.40
2016,04,17,05,12,7.40
2016,04,17,05,13,7.40
2016,04,17,05,14,7.40
2016,04,17,05,15,7.40
2016,04,17,05,16,7.40
2016,04,17,05,17,7.40
2016,04,17,05,18,7.40
2016,04,17,05,19,7.40
2016,04,17,05,20,7.40
2016,04,17,05,21,7.40
2016,04,17,05,22,7.40
2016,04,17,05,23,7.40
2016,04,17,05,24,7.40
2016,04,17,05,25,7.40
2016,04,17,05,26,7.40
2016,04,17,05,27,7.40
2016,04,17,05,28,7.40
2016,04,17,05,29,7.40
2016,04,17,05,30,7.40
2016,04,17,05,31,7.40
2016,04,17,05,32,7.40
2016,04,17,05,33,7.30
2016,04,17,05,34,7.30
2016,04,17,05,35,7.30
2016,04,17,05,36,7.30
2016,04,17,05,37,7.30
2016,04,17,05,38,7.30
2016,04,17,05,39,7.30
2016,04,17,05,40,7.30
2016,04,17,05,41,7.30
2016,04,17,05,42,7.30
2016,04,17,05,43,7.30
2016,04,17,05,44,7.30
2016,04,17,05,45,7.30
2016,04,17,05,46,7.30
2016,04,17,05,47,7.30
2016,04,17,05,48,7.30
2016,04,17,05,49,7.30
2016,04,17,05,50,7.20
2016,04,17,05,51,7.20
2016,04,17,05,52,7.20
2016,04,17,05,53,7.20
2016,04,17,05,54,7.20
2016,04,17,05,55,7.20
2016,04,17,05,56,7.20
2016,04,17,05,57,7.20
2016,04,17,05,58,7.20
2016,04,17,05,59,7.20
2016,04,17,06,00,7.20
2016,04,17,06,01,7.20
2016,04,17,06,02,7.20
2016,04,17,06,03,7.20
2016,04,17,06,04,7.20
2016,04,17,06,05,7.20
2016,04,17,06,06,7.20
2016,04,17,06,07,7.20
2016,04,17,06,08,7.20
2016,04,17,06,09,7.20
2016,04,17,06,10,7.20
2016,04,17,06,11,7.20
2016,04,17,06,12,7.10
2016,04,17,06,13,7.10
2016,04,17,06,14,7.10
2016,04,17,06,15,7.10
2016,04,17,06,16,7.10
2016,04,17,06,17,7.10
2016,04,17,06,18,7.10
2016,04,17,06,19,7.10
2016,04,17,06,20,7.10
2016,04,17,06,21,7.10
2016,04,17,06,22,7.10
2016,04,17,06,23,7.10
2016,04,17,06,24,7.10
2016,04,17,06,25,7.10
2016,04,17,06,26,7.10
2016,04,17,06,27,7.20
2016,04,17,06,28,7.20
2016,04,17,06,29,7.20
2016,04,17,06,30,7.20
2016,04,17,06,31,7.20
2016,04,17,06,32,7.20
2016,04,17,06,33,7.20
2016,04,17,06,34,7.20
2016,04,17,06,35,7.20
2016,04,17,06,36,7.20
2016,04,17,06,37,7.20
2016,04,17,06,38,7.20
2016,04,17,06,39,7.20
2016,04,17,06,40,7.20
2016,04,17,06,41,7.20
2016,04,17,06,42,7.30
2016,04,17,06,43,7.30
2016,04,17,06,44,7.30
2016,04,17,06,45,7.30
2016,04,17,06,46,7.30
2016,04,17,06,47,7.30
2016,04,17,06,48,7.30
2016,04,17,06,49,7.30
2016,04,17,06,50,7.30
2016,04,17,06,51,7.30
2016,04,17,06,52,7.30
2016,04,17,06,53,7.30
2016,04,17,06,54,7.30
2016,04,17,06,55,7.30
2016,04,17,06,56,7.30
2016,04,17,06,57,7.30
2016,04,17,06,58,7.40
2016,04,17,06,59,7.40
2016,04,17,07,00,7.40
2016,04,17,07,01,7.40
2016,04,17,07,02,7.40
2016,04,17,07,03,7.40
2016,04,17,07,04,7.40
2016,04,17,07,05,7.40
2016,04,17,07,06,7.50
2016,04,17,07,07,7.50
2016,04,17,07,08,7.60
2016,04,17,07,09,7.60
2016,04,17,07,10,7.60
2016,04,17,07,11,7.60
2016,04,17,07,12,7.60
2016,04,17,07,13,7.70
2016,04,17,07,14,7.70
2016,04,17,07,15,7.70
2016,04,17,07,16,7.80
2016,04,17,07,17,7.80
2016,04,17,07,18,7.90
2016,04,17,07,19,7.90
2016,04,17,07,20,7.90
2016,04,17,07,21,7.90
2016,04,17,07,22,8.00
2016,04,17,07,23,8.00
2016,04,17,07,24,8.10
2016,04,17,07,25,8.10
2016,04,17,07,26,8.10
2016,04,17,07,27,8.20
2016,04,17,07,28,8.20
2016,04,17,07,29,8.30
2016,04,17,07,30,8.30
2016,04,17,07,31,8.40
2016,04,17,07,32,8.50
2016,04,17,07,33,8.50
2016,04,17,07,34,8.60
2016,04,17,07,35,8.60
2016,04,17,07,36,8.70
2016,04,17,07,37,8.70
2016,04,17,07,38,8.80
2016,04,17,07,39,8.80
2016,04,17,07,40,8.80
2016,04,17,07,41,8.90
2016,04,17,07,42,8.90
2016,04,17,07,43,8.90
2016,04,17,07,44,8.90
2016,04,17,07,45,8.90
2016,04,17,07,46,9.00
2016,04,17,07,47,9.00
2016,04,17,07,48,9.10
2016,04,17,07,49,9.10
2016,04,17,07,50,9.10
2016,04,17,07,51,9.20
2016,04,17,07,52,9.20
2016,04,17,07,53,9.20
2016,04,17,07,54,9.20
2016,04,17,07,55,9.20
2016,04,17,07,56,9.30
2016,04,17,07,57,9.30
2016,04,17,07,58,9.30
2016,04,17,07,59,9.40
2016,04,17,08,00,9.40
2016,04,17,08,01,9.40
2016,04,17,08,02,9.40
2016,04,17,08,03,9.50
2016,04,17,08,04,9.50
2016,04,17,08,05,9.50
2016,04,17,08,06,9.50
2016,04,17,08,07,9.50
2016,04,17,08,08,9.60
2016,04,17,08,09,9.60
2016,04,17,08,10,9.60
2016,04,17,08,11,9.60
2016,04,17,08,12,9.70
2016,04,17,08,13,9.70
2016,04,17,08,14,9.70
2016,04,17,08,15,9.80
2016,04,17,08,16,9.80
2016,04,17,08,17,9.90
2016,04,17,08,18,9.90
2016,04,17,08,19,9.90
2016,04,17,08,20,10.00
2016,04,17,08,21,10.10
2016,04,17,08,22,10.10
2016,04,17,08,23,10.20
2016,04,17,08,24,10.20
2016,04,17,08,25,10.30
2016,04,17,08,26,10.40
2016,04,17,08,27,10.40
2016,04,17,08,28,10.50
2016,04,17,08,29,10.50
2016,04,17,08,30,10.50
2016,04,17,08,31,10.50
2016,04,17,08,32,10.50
2016,04,17,08,33,10.50
2016,04,17,08,34,10.50
2016,04,17,08,35,10.50
2016,04,17,08,36,10.50
2016,04,17,08,37,10.50
2016,04,17,08,38,10.50
2016,04,17,08,39,10.50
2016,04,17,08,40,10.50
2016,04,17,08,41,10.50
2016,04,17,08,42,10.50
2016,04,17,08,43,10.50
2016,04,17,08,44,10.50
2016,04,17,08,45,10.50
2016,04,17,08,46,10.50
2016,04,17,08,47,10.50
2016,04,17,08,48,10.50
2016,04,17,08,49,10.60
2016,04,17,08,50,10.60
2016,04,17,08,51,10.60
2016,04,17,08,52,10.60
2016,04,17,08,53,10.60
2016,04,17,08,54,10.70
2016,04,17,08,55,10.70
2016,04,17,08,56,10.70
2016,04,17,08,57,10.70
2016,04,17,08,58,10.70
2016,04,17,08,59,10.80
2016,04,17,09,00,10.80
2016,04,17,09,01,10.80
2016,04,17,09,02,10.80
2016,04,17,09,03,10.80
2016,04,17,09,04,10.80
2016,04,17,09,05,10.90
2016,04,17,09,06,11.00
2016,04,17,09,07,11.00
2016,04,17,09,08,11.10
2016,04,17,09,09,11.10
2016,04,17,09,10,11.20
2016,04,17,09,11,11.20
2016,04,17,09,12,11.20
2016,04,17,09,13,11.20
2016,04,17,09,14,11.30
2016,04,17,09,15,11.30
2016,04,17,09,16,11.30
2016,04,17,09,17,11.30
2016,04,17,09,18,11.40
2016,04,17,09,19,11.40
2016,04,17,09,20,11.40
2016,04,17,09,21,11.40
2016,04,17,09,22,11.40
2016,04,17,09,23,11.40
2016,04,17,09,24,11.40
2016,04,17,09,25,11.40
2016,04,17,09,26,11.40
2016,04,17,09,27,11.40
2016,04,17,09,28,11.50
2016,04,17,09,29,11.50
2016,04,17,09,30,11.60
2016,04,17,09,31,11.60
2016,04,17,09,32,11.70
2016,04,17,09,33,11.70
2016,04,17,09,34,11.80
2016,04,17,09,35,11.90
2016,04,17,09,36,12.00
2016,04,17,09,37,12.00
2016,04,17,09,38,12.10
2016,04,17,09,39,12.10
2016,04,17,09,40,12.20
2016,04,17,09,41,12.20
2016,04,17,09,42,12.30
2016,04,17,09,43,12.30
2016,04,17,09,44,12.40
2016,04,17,09,45,12.50
2016,04,17,09,46,12.60
2016,04,17,09,47,12.70
2016,04,17,09,48,12.80
2016,04,17,09,49,12.80
2016,04,17,09,50,12.90
2016,04,17,09,51,13.00
2016,04,17,09,52,13.10
2016,04,17,09,53,13.20
2016,04,17,09,54,13.20
2016,04,17,09,55,13.20
2016,04,17,09,56,13.30
2016,04,17,09,57,13.30
2016,04,17,09,58,13.30
2016,04,17,09,59,13.30
2016,04,17,10,00,13.30
2016,04,17,10,01,13.40
2016,04,17,10,02,13.40
2016,04,17,10,03,13.40
2016,04,17,10,04,13.40
2016,04,17,10,05,13.40
2016,04,17,10,06,13.40
2016,04,17,10,07,13.40
2016,04,17,10,08,13.40
2016,04,17,10,09,13.30
2016,04,17,10,10,13.30
2016,04,17,10,11,13.20
2016,04,17,10,12,13.20
2016,04,17,10,13,13.20
2016,04,17,10,14,13.20
2016,04,17,10,15,13.20
2016,04,17,10,16,13.30
2016,04,17,10,17,13.30
2016,04,17,10,18,13.30
2016,04,17,10,19,13.40
2016,04,17,10,20,13.50
2016,04,17,10,21,13.50
2016,04,17,10,22,13.50
2016,04,17,10,23,13.60
2016,04,17,10,24,13.60
2016,04,17,10,25,13.60
2016,04,17,10,26,13.60
2016,04,17,10,27,13.60
2016,04,17,10,28,13.70
2016,04,17,10,29,13.70
2016,04,17,10,30,13.70
2016,04,17,10,31,13.70
2016,04,17,10,32,13.70
2016,04,17,10,33,13.70
2016,04,17,10,34,13.60
2016,04,17,10,35,13.60
2016,04,17,10,36,13.50
2016,04,17,10,37,13.40
2016,04,17,10,38,13.40
2016,04,17,10,39,13.40
2016,04,17,10,40,13.40
2016,04,17,10,41,13.40
2016,04,17,10,42,13.40
2016,04,17,10,43,13.40
2016,04,17,10,44,13.40
2016,04,17,10,45,13.50
2016,04,17,10,46,13.60
2016,04,17,10,47,13.70
2016,04,17,10,48,13.80
2016,04,17,10,49,13.90
2016,04,17,10,50,14.00
2016,04,17,10,51,14.10
2016,04,17,10,52,14.10
2016,04,17,10,53,14.10
2016,04,17,10,54,14.10
2016,04,17,10,55,14.00
2016,04,17,10,56,14.10
2016,04,17,10,57,14.00
2016,04,17,10,58,14.00
2016,04,17,10,59,13.90
2016,04,17,11,00,13.90
2016,04,17,11,01,13.80
2016,04,17,11,02,13.80
2016,04,17,11,03,13.90
2016,04,17,11,04,14.00
2016,04,17,11,05,14.10
2016,04,17,11,06,14.20
2016,04,17,11,07,14.30
2016,04,17,11,08,14.40
2016,04,17,11,09,14.50
2016,04,17,11,10,14.60
2016,04,17,11,11,14.70
2016,04,17,11,12,14.80
2016,04,17,11,13,14.80
2016,04,17,11,14,14.90
2016,04,17,11,15,14.90
2016,04,17,11,16,15.00
2016,04,17,11,17,15.10
2016,04,17,11,18,15.10
2016,04,17,11,19,15.20
2016,04,17,11,20,15.20
2016,04,17,11,21,15.30
2016,04,17,11,22,15.40
2016,04,17,11,23,15.40
2016,04,17,11,24,15.50
2016,04,17,11,25,15.60
2016,04,17,11,26,15.60
2016,04,17,11,27,15.70
2016,04,17,11,28,15.70
2016,04,17,11,29,15.70
2016,04,17,11,30,15.80
2016,04,17,11,31,15.80
2016,04,17,11,32,15.80
2016,04,17,11,33,15.80
2016,04,17,11,34,15.70
2016,04,17,11,35,15.60
2016,04,17,11,36,15.50
2016,04,17,11,37,15.30
2016,04,17,11,38,15.20
2016,04,17,11,39,15.10
2016,04,17,11,40,15.00
2016,04,17,11,41,14.90
2016,04,17,11,42,14.90
2016,04,17,11,43,14.80
2016,04,17,11,44,14.80
2016,04,17,11,45,14.80
2016,04,17,11,46,14.80
2016,04,17,11,47,14.80
2016,04,17,11,48,14.90
2016,04,17,11,49,14.90
2016,04,17,11,50,14.90
2016,04,17,11,51,14.90
2016,04,17,11,52,14.90
2016,04,17,11,53,14.90
2016,04,17,11,54,14.90
2016,04,17,11,55,14.90
2016,04,17,11,56,15.00
2016,04,17,11,57,15.00
2016,04,17,11,58,15.10
2016,04,17,11,59,15.10
2016,04,17,12,00,15.10
2016,04,17,12,01,15.10
2016,04,17,12,02,15.00
2016,04,17,12,03,14.90
2016,04,17,12,04,14.90
2016,04,17,12,05,14.80
2016,04,17,12,06,14.80
2016,04,17,12,07,14.90
2016,04,17,12,08,14.90
2016,04,17,12,09,15.00
2016,04,17,12,10,15.10
2016,04,17,12,11,15.10
2016,04,17,12,12,15.20
2016,04,17,12,13,15.20
2016,04,17,12,14,15.20
2016,04,17,12,15,15.30
2016,04,17,12,16,15.20
2016,04,17,12,17,15.30
2016,04,17,12,18,15.30
2016,04,17,12,19,15.30
2016,04,17,12,20,15.40
2016,04,17,12,21,15.50
2016,04,17,12,22,15.50
2016,04,17,12,23,15.60
2016,04,17,12,24,15.60
2016,04,17,12,25,15.60
2016,04,17,12,26,15.70
2016,04,17,12,27,15.80
2016,04,17,12,28,15.80
2016,04,17,12,29,15.90
2016,04,17,12,30,15.90
2016,04,17,12,31,15.90
2016,04,17,12,32,16.00
2016,04,17,12,33,16.00
2016,04,17,12,34,16.00
2016,04,17,12,35,16.00
2016,04,17,12,36,16.10
2016,04,17,12,37,16.10
2016,04,17,12,38,16.10
2016,04,17,12,39,16.10
2016,04,17,12,40,16.10
2016,04,17,12,41,16.00
2016,04,17,12,42,16.00
2016,04,17,12,43,16.00
2016,04,17,12,44,16.10
2016,04,17,12,45,16.10
2016,04,17,12,46,16.20
2016,04,17,12,47,16.20
2016,04,17,12,48,16.30
2016,04,17,12,49,16.30
2016,04,17,12,50,16.30
2016,04,17,12,51,16.30
2016,04,17,12,52,16.30
2016,04,17,12,53,16.40
2016,04,17,12,54,16.40
2016,04,17,12,55,16.50
2016,04,17,12,56,16.50
2016,04,17,12,57,16.40
2016,04,17,12,58,16.40
2016,04,17,12,59,16.40
2016,04,17,13,00,16.30
2016,04,17,13,01,16.30
2016,04,17,13,02,16.30
2016,04,17,13,03,16.30
2016,04,17,13,04,16.30
2016,04,17,13,05,16.30
2016,04,17,13,06,16.40
2016,04,17,13,07,16.50
2016,04,17,13,08,16.50
2016,04,17,13,09,16.60
2016,04,17,13,10,16.70
2016,04,17,13,11,16.80
2016,04,17,13,12,16.80
2016,04,17,13,13,16.90
2016,04,17,13,14,16.90
2016,04,17,13,15,16.90
2016,04,17,13,16,16.90
2016,04,17,13,17,16.90
2016,04,17,13,18,16.90
2016,04,17,13,19,16.80
2016,04,17,13,20,16.80
2016,04,17,13,21,16.80
2016,04,17,13,22,16.80
2016,04,17,13,23,16.70
2016,04,17,13,24,16.70
2016,04,17,13,25,16.70
2016,04,17,13,26,16.70
2016,04,17,13,27,16.70
2016,04,17,13,28,16.70
2016,04,17,13,29,16.80
2016,04,17,13,30,16.80
2016,04,17,13,31,16.90
2016,04,17,13,32,17.00
2016,04,17,13,33,17.00
2016,04,17,13,34,17.10
2016,04,17,13,35,17.10
2016,04,17,13,36,17.10
2016,04,17,13,37,17.10
2016,04,17,13,38,17.00
2016,04,17,13,39,17.00
2016,04,17,13,40,16.90
2016,04,17,13,41,16.80
2016,04,17,13,42,16.70
2016,04,17,13,43,16.70
2016,04,17,13,44,16.60
2016,04,17,13,45,16.60
2016,04,17,13,46,16.60
2016,04,17,13,47,16.60
2016,04,17,13,48,16.60
2016,04,17,13,49,16.60
2016,04,17,13,50,16.60
2016,04,17,13,51,16.60
2016,04,17,13,52,16.60
2016,04,17,13,53,16.60
2016,04,17,13,54,16.60
2016,04,17,13,55,16.60
2016,04,17,13,56,16.60
2016,04,17,13,57,16.60
2016,04,17,13,58,16.70
2016,04,17,13,59,16.80
2016,04,17,14,00,16.80
2016,04,17,14,01,16.80
2016,04,17,14,02,16.90
2016,04,17,14,03,16.90
2016,04,17,14,04,17.00
2016,04,17,14,05,17.00
2016,04,17,14,06,17.10
2016,04,17,14,07,17.10
2016,04,17,14,08,17.20
2016,04,17,14,09,17.20
2016,04,17,14,10,17.30
2016,04,17,14,11,17.40
2016,04,17,14,12,17.40
2016,04,17,14,13,17.50
2016,04,17,14,14,17.60
2016,04,17,14,15,17.60
2016,04,17,14,16,17.70
2016,04,17,14,17,17.70
2016,04,17,14,18,17.70
2016,04,17,14,19,17.70
2016,04,17,14,20,17.70
2016,04,17,14,21,17.80
2016,04,17,14,22,17.80
2016,04,17,14,23,17.70
2016,04,17,14,24,17.70
2016,04,17,14,25,17.60
2016,04,17,14,26,17.60
2016,04,17,14,27,17.60
2016,04,17,14,28,17.60
2016,04,17,14,29,17.60
2016,04,17,14,30,17.60
2016,04,17,14,31,17.60
2016,04,17,14,32,17.70
2016,04,17,14,33,17.70
2016,04,17,14,34,17.70
2016,04,17,14,35,17.70
2016,04,17,14,36,17.70
2016,04,17,14,37,17.70
2016,04,17,14,38,17.70
2016,04,17,14,39,17.70
2016,04,17,14,40,17.70
2016,04,17,14,41,17.70
2016,04,17,14,42,17.70
2016,04,17,14,43,17.70
2016,04,17,14,44,17.70
2016,04,17,14,45,17.60
2016,04,17,14,46,17.60
2016,04,17,14,47,17.50
2016,04,17,14,48,17.50
2016,04,17,14,49,17.40
2016,04,17,14,50,17.40
2016,04,17,14,51,17.40
2016,04,17,14,52,17.40
2016,04,17,14,53,17.30
2016,04,17,14,54,17.30
2016,04,17,14,55,17.20
2016,04,17,14,56,17.20
2016,04,17,14,57,17.20
2016,04,17,14,58,17.20
2016,04,17,14,59,17.20
2016,04,17,15,00,17.20
2016,04,17,15,01,17.20
2016,04,17,15,02,17.20
2016,04,17,15,03,17.20
2016,04,17,15,04,17.20
2016,04,17,15,05,17.10
2016,04,17,15,06,17.10
2016,04,17,15,07,17.10
2016,04,17,15,08,17.10
2016,04,17,15,09,17.10
2016,04,17,15,10,17.10
2016,04,17,15,11,17.10
2016,04,17,15,12,17.10
2016,04,17,15,13,17.10
2016,04,17,15,14,17.20
2016,04,17,15,15,17.30
2016,04,17,15,16,17.40
2016,04,17,15,17,17.50
2016,04,17,15,18,17.50
2016,04,17,15,19,17.60
2016,04,17,15,20,17.60
2016,04,17,15,21,17.50
2016,04,17,15,22,17.50
2016,04,17,15,23,17.40
2016,04,17,15,24,17.40
2016,04,17,15,25,17.40
2016,04,17,15,26,17.30
2016,04,17,15,27,17.30
2016,04,17,15,28,17.30
2016,04,17,15,29,17.20
2016,04,17,15,30,17.20
2016,04,17,15,31,17.20
2016,04,17,15,32,17.30
2016,04,17,15,33,17.30
2016,04,17,15,34,17.30
2016,04,17,15,35,17.40
2016,04,17,15,36,17.40
2016,04,17,15,37,17.40
2016,04,17,15,38,17.40
2016,04,17,15,39,17.50
2016,04,17,15,40,17.60
2016,04,17,15,41,17.60
2016,04,17,15,42,17.60
2016,04,17,15,43,17.60
2016,04,17,15,44,17.60
2016,04,17,15,45,17.60
2016,04,17,15,46,17.70
2016,04,17,15,47,17.70
2016,04,17,15,48,17.70
2016,04,17,15,49,17.70
2016,04,17,15,50,17.70
2016,04,17,15,51,17.80
2016,04,17,15,52,17.80
2016,04,17,15,53,17.90
2016,04,17,15,54,18.00
2016,04,17,15,55,18.10
2016,04,17,15,56,18.20
2016,04,17,15,57,18.20
2016,04,17,15,58,18.20
2016,04,17,15,59,18.20
2016,04,17,16,00,18.20
2016,04,17,16,01,18.20
2016,04,17,16,02,18.20
2016,04,17,16,03,18.20
2016,04,17,16,04,18.20
2016,04,17,16,05,18.30
2016,04,17,16,06,18.40
2016,04,17,16,07,18.50
2016,04,17,16,08,18.50
2016,04,17,16,09,18.60
2016,04,17,16,10,18.60
2016,04,17,16,11,18.60
2016,04,17,16,12,18.60
2016,04,17,16,13,18.60
2016,04,17,16,14,18.50
2016,04,17,16,15,18.50
2016,04,17,16,16,18.50
2016,04,17,16,17,18.50
2016,04,17,16,18,18.50
2016,04,17,16,19,18.50
2016,04,17,16,20,18.50
2016,04,17,16,21,18.60
2016,04,17,16,22,18.60
2016,04,17,16,23,18.60
2016,04,17,16,24,18.60
2016,04,17,16,25,18.50
2016,04,17,16,26,18.40
2016,04,17,16,27,18.30
2016,04,17,16,28,18.30
2016,04,17,16,29,18.20
2016,04,17,16,30,18.20
2016,04,17,16,31,18.10
2016,04,17,16,32,18.10
2016,04,17,16,33,18.00
2016,04,17,16,34,18.00
2016,04,17,16,35,17.90
2016,04,17,16,36,17.90
2016,04,17,16,37,17.90
2016,04,17,16,38,17.90
2016,04,17,16,39,17.90
2016,04,17,16,40,18.00
2016,04,17,16,41,18.10
2016,04,17,16,42,18.10
2016,04,17,16,43,18.20
2016,04,17,16,44,18.30
2016,04,17,16,45,18.40
2016,04,17,16,46,18.50
2016,04,17,16,47,18.50
2016,04,17,16,48,18.60
2016,04,17,16,49,18.70
2016,04,17,16,50,18.70
2016,04,17,16,51,18.70
2016,04,17,16,52,18.70
2016,04,17,16,53,18.80
2016,04,17,16,54,18.80
2016,04,17,16,55,18.80
2016,04,17,16,56,18.70
2016,04,17,16,57,18.70
2016,04,17,16,58,18.60
2016,04,17,16,59,18.50
2016,04,17,17,00,18.40
2016,04,17,17,01,18.30
2016,04,17,17,02,18.10
2016,04,17,17,03,18.00
2016,04,17,17,04,17.90
2016,04,17,17,05,17.80
2016,04,17,17,06,17.70
2016,04,17,17,07,17.60
2016,04,17,17,08,17.50
2016,04,17,17,09,17.50
2016,04,17,17,10,17.40
2016,04,17,17,11,17.30
2016,04,17,17,12,17.30
2016,04,17,17,13,17.20
2016,04,17,17,14,17.20
2016,04,17,17,15,17.20
2016,04,17,17,16,17.20
2016,04,17,17,17,17.30
2016,04,17,17,18,17.30
2016,04,17,17,19,17.30
2016,04,17,17,20,17.30
2016,04,17,17,21,17.40
2016,04,17,17,22,17.40
2016,04,17,17,23,17.40
2016,04,17,17,24,17.50
2016,04,17,17,25,17.50
2016,04,17,17,26,17.60
2016,04,17,17,27,17.60
2016,04,17,17,28,17.70
2016,04,17,17,29,17.80
2016,04,17,17,30,17.80
2016,04,17,17,31,17.90
2016,04,17,17,32,17.90
2016,04,17,17,33,17.90
2016,04,17,17,34,17.90
2016,04,17,17,35,17.90
2016,04,17,17,36,17.90
2016,04,17,17,37,17.90
2016,04,17,17,38,17.90
2016,04,17,17,39,17.90
2016,04,17,17,40,17.80
2016,04,17,17,41,17.80